Weather History for KPNE - July, 2013

Change the Weather History Date:

Sunday, July 21, 2013

  Actual Average Record
Temperature  
Mean Temperature 80 °F -  
Max Temperature 88 °F 83 °F 98 °F (2011)
Min Temperature 73 °F 64 °F 57 °F (2000)
Cooling Degree Days 16    
Growing Degree Days 30 (Base 50)    
Moisture  
Dew Point 70 °F    
Average Humidity 72    
Maximum Humidity 87    
Minimum Humidity 55    
Precipitation  
Precipitation 0.00 in - - ()
Sea Level Pressure  
Sea Level Pressure 29.92 in    
Wind  
Wind Speed 4 mph (ESE)    
Max Wind Speed 15 mph    
Max Gust Speed -    
Visibility 10 miles    
Events Rain , Thunderstorm    
Averages and records for this station are not official NWS values.
T = Trace of Precipitation, MM = Missing Value Source: NWS Daily Summary

Daily Weather History Graph

Daily Weather History Graph

Search for Another Location

Airport or City:

Trip Planner

Search our weather history database for the weather conditions in past years. The results will help you decide how hot, cold, wet, or windy it might be!

Date:

Astronomy

Jul. 21, 2013 Rise Set
Actual Time 5:48 AM EDT 8:23 PM EDT
Civil Twilight 5:17 AM EDT 8:55 PM EDT
Nautical Twilight 4:38 AM EDT 9:34 PM EDT
Astronomical Twilight 3:54 AM EDT 10:17 PM EDT
Moon 7:19 PM EDT (7/21) 4:31 AM EDT (7/21)
Length of Visible Light 15h 37m
Length of Day
14h 35m
Waxing Gibbous, 98% of the Moon is Illuminated
Jul 21
Waxing Gibbous
Jul 22
Full
Jul 29
Last Quarter
Aug 6
New
Aug 14
First Quarter

Hourly Weather History & Observations

Time (EDT) Temp. Heat Index Dew Point Humidity Pressure Visibility Wind Dir Wind Speed Gust Speed Precip Events Conditions
12:54 AM 75.9 °F - - N/A% 29.87 in 10.0 mi Variable 3.5 mph - N/A   Clear
1:54 AM 75.0 °F - - N/A% 29.88 in 10.0 mi SSW 4.6 mph - 0.00 in   Mostly Cloudy
2:54 AM 75.0 °F - - N/A% 29.87 in 8.0 mi Calm Calm - N/A   Partly Cloudy
3:54 AM 75.0 °F - - N/A% 29.86 in 9.0 mi WSW 4.6 mph - N/A   Clear
5:54 AM 75.0 °F - - N/A% 29.88 in 10.0 mi West 3.5 mph - N/A   Clear
6:54 AM 75.0 °F - - N/A% 29.90 in 9.0 mi West 6.9 mph - N/A   Partly Cloudy
7:54 AM 75.9 °F - - N/A% 29.92 in 8.0 mi Calm Calm - 0.00 in Rain Light Rain
9:54 AM 80.1 °F - - N/A% 29.92 in 9.0 mi Calm Calm - 0.00 in   Partly Cloudy
10:54 AM 82.9 °F 88.8 °F 73.0 °F 72% 29.93 in 9.0 mi East 5.8 mph - N/A   Clear
11:54 AM 84.0 °F 89.6 °F 72.0 °F 67% 29.94 in 10.0 mi ESE 3.5 mph - N/A   Partly Cloudy
1:54 PM 87.1 °F 94.5 °F 73.0 °F 63% 29.93 in 10.0 mi NNE 6.9 mph - N/A   Mostly Cloudy
2:54 PM 86.0 °F 90.7 °F 70.0 °F 59% 29.93 in 10.0 mi SE 5.8 mph - N/A   Partly Cloudy
3:44 PM 87.8 °F 92.6 °F 69.8 °F 55% 29.92 in 10.0 mi Calm Calm - N/A Thunderstorm Partly Cloudy
3:54 PM 88.0 °F 93.8 °F 71.1 °F 57% 29.91 in 10.0 mi SE 5.8 mph - N/A Thunderstorm Clear
4:54 PM 79.0 °F - 70.0 °F 74% 29.92 in 10.0 mi NE 15.0 mph - N/A   Mostly Cloudy
5:54 PM 77.0 °F - 71.1 °F 82% 29.92 in 10.0 mi East 6.9 mph - N/A   Clear
6:54 PM 79.0 °F - 70.0 °F 74% 29.93 in 10.0 mi ESE 9.2 mph - N/A   Mostly Cloudy
7:54 PM 78.1 °F - 70.0 °F 76% 29.94 in 10.0 mi ESE 10.4 mph - N/A   Partly Cloudy
8:54 PM 75.9 °F - 69.1 °F 79% 29.95 in 10.0 mi SE 4.6 mph - N/A   Clear
9:54 PM 73.9 °F - 69.1 °F 85% 29.95 in 10.0 mi Calm Calm - N/A   Clear
10:54 PM 75.0 °F - 69.1 °F 82% 29.96 in 10.0 mi Calm Calm - N/A   Clear
11:54 PM 73.0 °F - 69.1 °F 87% 29.96 in 10.0 mi NE 3.5 mph - N/A   Clear